Preview of NWS' New Version of Forecast
This preview is not operational and should not be used for support decisions.
Latest weather observations around

Fayetteville, Drake Field (KFYV)

Using English Units (Switch to International System of Units)
Date/ Time (CDT) Wind (mph) Vis. (mi) Weather Sky Cond. Temp (°F) Rel. Humidity Wind Chill (°F) Heat Index (°F) Pressure Precip. (in)
Air Dwpt 6 hour Altimeter (inHg) Sea level (inHg) 1 hr 3 hr 6 hr
Max Min
Apr 23 00:20 NNE 6 10 Cloudy SCT011 SCT022 OVC030 52 51     97%     29.95   0    
Apr 22 23:53 N 5 9 Light Rain BKN011 OVC020 52 51     97%     29.95 29.95 0    
Apr 22 23:13 N 5 6 Light Rain and Fog/Mist OVC010 53 52     96%     29.96   0    
Apr 22 22:53 N 6 7 Light Rain BKN006 OVC010 53 52     96%     29.96 29.95 0    
Apr 22 22:09 NNW 3 5 Light Rain and Fog/Mist BKN006 BKN011 OVC017 53 53     100%     29.96   0    
Apr 22 21:53 NW 5 9 Cloudy FEW008 BKN015 OVC027 53 52     96%     29.96 29.96 0 0  
Apr 22 21:48 NW 6 9 Cloudy SCT008 BKN017 OVC027 52 52     100%     29.96   0    
Apr 22 20:53 Calm 5 Light Rain and Fog/Mist OVC005 52 52     100%     29.96 29.95 0    
Apr 22 19:53 Calm 7 Cloudy OVC005 52 51     97%     29.95 29.94 0    
Apr 22 19:10 WSW 5 6 Fog/Mist OVC005 52 51     97%     29.94        
Apr 22 18:53 5 6 Fog/Mist OVC004 52 51     97%     29.94 29.93      
Apr 22 18:02 WNW 5 4 Fog/Mist OVC004 52 51     97%     29.94        
Apr 22 17:53 W 6 4 Fog/Mist OVC005 52 51     97%     29.94 29.93      
Apr 22 16:53 WNW 8 4 Fog/Mist OVC006 52 52     100%     29.94 29.93      
Apr 22 15:53 W 6 5 Fog/Mist OVC006 52 51     97%     29.93 29.93      
Apr 22 15:11 WSW 6 3 Fog/Mist OVC005 51 51     100%     29.95        
Apr 22 14:53 WSW 7 2 Fog/Mist OVC004 51 51     100%     29.95 29.95      
Apr 22 14:33 W 7 2 Fog/Mist OVC004 51 51     100%     29.96        
Apr 22 13:53 WNW 5 5 Fog/Mist OVC004 51 50     96%     29.96 29.96      
Apr 22 12:53 W 6 3 Fog/Mist OVC004 51 51     100%     29.96 29.95     0
Apr 22 11:53 WSW 5 2 Fog/Mist OVC004 50 50     100% 48   29.97 29.96      
Apr 22 11:24 WNW 7 7 Cloudy OVC004 50 50     100% 47   29.97        
Apr 22 10:53 W 8 9 Cloudy OVC005 50 50     100% 47   29.97 29.96 0    
Apr 22 09:53 W 7 6 Light Rain and Fog/Mist OVC006 50 50     100% 47   29.96 29.95 0 0  
Apr 22 09:29 WSW 8 4 Light Rain and Fog/Mist OVC004 50 50     100% 47   29.96   0    
Apr 22 08:53 WSW 7 0.5 Fog OVC003 51 51     100%     29.96 29.96 0    
Apr 22 07:53 NNW 8 9 Cloudy FEW013 BKN022 OVC100 53 52     96%     29.96 29.95 0    
Apr 22 06:53 W 3 10 Light Rain BKN008 OVC065 52 52     100%     29.95 29.94 0   0
Apr 22 06:34 WSW 5 5 Light Rain and Fog/Mist FEW007 OVC065 52 52     100%     29.95   0    
Apr 22 05:53 E 5 7 Light Rain OVC075 52 52     100%     29.94 29.93 0    
Apr 22 05:35 E 5 5 Light Rain and Fog/Mist SCT012 BKN065 OVC080 52 52     100%     29.95   0    
Apr 22 04:53 SW 3 6 Light Rain and Fog/Mist BKN012 OVC023 52 52     100%     29.96 29.95 0    
Apr 22 04:42 WSW 3 4 Light Rain and Fog/Mist BKN012 BKN019 OVC070 52 52     100%     29.97   0    
Apr 22 04:33 W 3 4 Light Rain and Fog/Mist SCT012 BKN019 OVC060 52 52     100%     29.97   0    
Apr 22 04:26 NW 3 4 Rain and Fog/Mist SCT008 BKN060 OVC070 52 52     100%     29.96   0    
Apr 22 04:21 NW 3 4 Rain and Fog/Mist SCT010 BKN016 OVC065 52 52     100%     29.96   0    
Apr 22 04:11 Calm 3 Rain and Fog/Mist OVC009 52 52     100%     29.97   0    
Apr 22 04:04 Calm 2.5 Rain and Fog/Mist BKN009 OVC029 53 52     96%     29.96   0    
Apr 22 03:53 Calm 4 Rain and Fog/Mist FEW007 BKN011 OVC029 53 52     96%     29.97 29.95 0 0  
Apr 22 03:26 WNW 9 4 Rain and Fog/Mist SCT007 OVC016 53 52     96%     29.95   0    
Apr 22 03:15 W 9 5 Light Rain and Fog/Mist SCT008 BKN013 OVC018 53 53     100%     29.95   0    
Apr 22 03:05 W 11 8 Light Rain SCT008 OVC018 53 52     96%     29.96   0    
Apr 22 02:53 WSW 7 8 Light Rain BKN019 OVC029 53 52     96%     29.96 29.94 0    
Apr 22 02:45 WSW 3 8 Light Rain BKN019 OVC031 53 52     96%     29.95   0    
Apr 22 01:53 Calm 10 Cloudy FEW044 BKN050 OVC075 53 52     96%     29.96 29.94      
Apr 22 00:53 NW 5 8 Cloudy OVC044 53 53     100%     30 29.98     0
Apr 21 23:53 NE 3 10 Cloudy OVC043 54 52     93%     30.02 30      
Apr 21 23:33 Calm 10 Cloudy SCT023 OVC042 53 52     96%     30.02        
Apr 21 23:07 Calm 9 Cloudy FEW012 BKN025 OVC033 53 52     96%     30.03        
Apr 21 22:53 Calm 8 Cloudy FEW012 BKN033 OVC044 53 53     100%     30.03 30.01 0    
Apr 21 21:53 ENE 6 5 Fog/Mist BKN030 BKN039 OVC055 53 52     96%     30.05 30.03 0 0  
Apr 21 20:53 Calm 6 Fog/Mist BKN049 OVC055 53 53     100%     30.05 30.04 0    
Apr 21 20:00 Calm 7 Light Rain FEW006 SCT043 OVC050 54 53     97%     30.06   0    
Apr 21 19:53 3 6 Light Rain and Fog/Mist BKN049 OVC055 54 53     97%     30.05 30.04 0    
Apr 21 19:21 Calm 4 Light Rain and Fog/Mist BKN044 OVC055 54 53     97%     30.05   0    
Apr 21 19:13 NNW 3 2.5 Rain and Fog/Mist BKN044 OVC055 54 53     97%     30.05   0    
Apr 21 18:53 W 6 1.75 Heavy Rain and Fog/Mist BKN050 OVC060 54 52     93%     30.05 30.05 0   0
Apr 21 17:53 E 8 10 Cloudy FEW060 OVC075 57 51     81%     30 29.99 0    
Apr 21 16:53 E 6 5 Light Rain and Fog/Mist BKN070 OVC095 55 52     89%     30.03 30.02 0    
Apr 21 15:53 E 6 10 Light Rain SCT055 BKN080 OVC095 61 43     52%     30.03 30.02 0 0  
Apr 21 14:53 S 9 10 Mostly Cloudy SCT100 BKN120 63 42     46%     30.07 30.06      
Apr 21 13:53 S 13 10 Clear CLR 67 41     39%     30.06 30.04      
Apr 21 12:53 ESE 11 10 Mostly Clear FEW060 67 41     39%     30.07 30.06     0
Apr 21 11:53 SE 14 10 Clear CLR 64 39     40%     30.1 30.09      
Apr 21 10:53 SE 15 10 Clear CLR 63 39     41%     30.13 30.11      
Apr 21 09:53 S 8 10 Clear CLR 60 40     47%     30.14 30.13   0  
Apr 21 08:53 E 7 10 Clear CLR 53 36     52%     30.14 30.12 0    
Apr 21 07:53 Calm 10 Light Rain FEW047 FEW100 49 36     61%     30.15 30.14 0    
Apr 21 06:53 NE 3 10 Partly Cloudy SCT120 50 31     48% 49   30.14 30.12 0   0
Apr 21 05:53 E 13 10 Light Rain SCT100 BKN120 49 30     48% 44   30.13 30.11 0    
Apr 21 04:53 ENE 6 10 Clear CLR 47 30     52% 44   30.19 30.18      
Apr 21 03:53 Calm 10 Clear CLR 48 32     54%     30.21 30.19      
Apr 21 02:53 Calm 10 Clear CLR 47 31     53%     30.19 30.18      
Apr 21 01:53 NE 3 10 Clear CLR 52 30     43%     30.2 30.18      
Apr 21 00:53 Calm 10 Clear CLR 53 28     38%     30.2 30.18      
Apr 20 23:53 SE 6 10 Clear CLR 55 25     31%     30.18 30.17      
Apr 20 22:53 ESE 8 10 Clear CLR 57 25     29%     30.16 30.14      
Apr 20 21:53 ESE 9 10 Clear CLR 58 24     27%     30.16 30.15      
Apr 20 20:53 SE 6 10 Clear CLR 58 23     26%     30.16 30.15      
Apr 20 19:53 ESE 10 10 Clear CLR 62 19     19%     30.16 30.16      
Apr 20 18:53 ESE 11 10 Clear CLR 66 22     19%     30.17 30.17      
Apr 20 17:53 SE 10 10 Clear CLR 67 24     20%     30.18 30.17      
Apr 20 16:53 ESE 13 10 Clear CLR 68 24     19%     30.19 30.19      
Apr 20 15:53 7 10 Clear CLR 67 25     20%     30.22 30.22      
Apr 20 14:53 SE 6 10 Clear CLR 66 22     19%     30.27 30.26      
Apr 20 13:53 SE 13 10 Clear CLR 65 22     19%     30.29 30.29      
Apr 20 12:53 SE 11 10 Clear CLR 62 25     24%     30.32 30.32      
Apr 20 11:53 ESE 6 10 Clear CLR 58 28     32%     30.35 30.35      
Apr 20 10:53 ESE 7 10 Clear CLR 56 29     35%     30.36 30.37      
Apr 20 09:53 ESE 10 10 Clear CLR 51 29     42%     30.38 30.39      
Apr 20 08:53 E 13 10 Clear CLR 47 32     56% 41   30.4 30.4      
Apr 20 07:53 Calm 10 Clear CLR 36 34     92%     30.41 30.42      
Notice The following observation data may not be complete
Apr 20 06:53 Calm 10 Clear CLR   31      %     30.41 30.42      
Notice The following observation data may not be complete
Apr 20 05:53 Calm 10 Clear CLR   31      %     30.38 30.39      
Notice The following observation data may not be complete
Apr 20 04:53 N 3 10 Clear CLR   31      %     30.35 30.36      
Notice The following observation data may not be complete
Apr 20 03:53 Calm 10 Clear CLR   32      %     30.34 30.35      
Apr 20 02:53 ENE 3 10 Clear CLR 40 31     70% 38   30.34 30.34      
Apr 20 00:53 3 10 Clear CLR 40 32     73% 38   30.36 30.37      
Jun 11 22:53 SSE 11 10 Clear CLR 75 63     66%   75 29.97 29.93      
Jun 10 17:53 S 16 10 Clear   80 66     62%   82 29.89 29.86      
Jun 10 00:53 Calm 10 Clear CLR 60 60     100%     29.93 29.9      
Jun 08 12:53 Calm 10 Clear CLR 77 52     42%   76 30.05 30.02      
Jun 07 20:53 Calm 10 Clear CLR 64 57     78%     30.02 29.99      
Jun 06 04:53 Calm 0.25 Fog VV002 62 62     100%     29.9 29.86      
Jun 06 02:53 Calm 0.5 Fog VV002 63 63     100%     29.88 29.85      
Jun 05 18:53 E 3 10 Clear CLR 79 71     77%   82 29.82 29.78     1
Jun 05 16:53 5 10 Mostly Clear FEW029 80 71     74%   84 29.8 29.76      
Notice The following observation data may not be complete
Jun 05 14:21   10 Mostly Cloudy SCT016 SCT075 BKN110          %         1    
Jun 05 14:13 E 5 4 Thunderstorms and Rain and Fog/Mist BKN020 BKN075 OVC110 70 70     100%     29.83   1    
Notice The following observation data may not be complete
Jun 05 14:10 SE 6 1 Thunderstorms and Rain and Fog/Mist BKN020 BKN075 OVC120   69      %     29.83   1